| time (UTC) | temp F | wind direction | speed knots | gust knots | rain 1hr in | rain 24hr in | rain mn in | humidity % | barometer mb |
| 20260507070017 | 52 | 0.0 | 0.0 | 0.00 | 0.02 | 0.00 | 86 | 1015.1 | |
| 20260507065024 | 52 | 0.0 | 0.0 | 0.00 | 0.03 | 0.00 | 87 | 1015.0 | |
| 20260507064020 | 51 | 0.0 | 0.0 | 0.00 | 0.03 | 0.00 | 89 | 1014.9 | |
| 20260507063026 | 51 | 0.0 | 0.0 | 0.00 | 0.03 | 0.00 | 91 | 1014.9 | |
| 20260507062018 | 50 | 0.0 | 0.0 | 0.00 | 0.04 | 0.00 | 92 | 1014.8 | |
| 20260507061029 | 50 | 0.0 | 0.0 | 0.00 | 0.04 | 0.00 | 93 | 1014.7 | |
| 20260507060020 | 49 | 0.0 | 0.0 | 0.00 | 0.04 | 0.00 | 93 | 1014.6 | |
| 20260507055018 | 49 | 0.0 | 0.0 | 0.00 | 0.05 | 0.00 | 93 | 1014.5 | |
| 20260507054043 | 49 | 0.0 | 0.0 | 0.00 | 0.05 | 0.00 | 93 | 1014.4 | |
| 20260507053022 | 49 | 0.0 | 0.0 | 0.00 | 0.06 | 0.00 | 93 | 1014.4 | |
| 20260507052023 | 48 | 0.0 | 0.0 | 0.00 | 0.06 | 0.00 | 93 | 1014.3 | |
| 20260507051020 | 48 | 0.0 | 0.0 | 0.00 | 0.07 | 0.00 | 93 | 1014.2 | |
| 20260507050039 | 48 | 0.0 | 0.0 | 0.00 | 0.07 | 0.00 | 93 | 1014.0 | |
| 20260507045020 | 48 | 0.0 | 0.0 | 0.00 | 0.07 | 0.00 | 93 | 1013.8 | |
| 20260507044033 | 48 | 0.0 | 0.0 | 0.00 | 0.07 | 0.00 | 93 | 1013.6 | |
| 20260507043019 | 48 | 0.0 | 0.0 | 0.00 | 0.07 | 0.00 | 93 | 1013.6 | |
| 20260507042020 | 48 | 0.0 | 0.0 | 0.00 | 0.07 | 0.00 | 93 | 1013.5 | |
| 20260507041019 | 48 | 0.0 | 0.0 | 0.00 | 0.08 | 0.00 | 93 | 1013.4 | |
| 20260507040019 | 48 | 0.0 | 0.0 | 0.00 | 0.08 | 0.00 | 93 | 1013.3 | |
| 20260507035017 | 48 | 0.0 | 0.0 | 0.00 | 0.08 | 0.00 | 93 | 1013.2 | |
| 20260507034024 | 48 | 0.0 | 0.0 | 0.00 | 0.08 | 0.00 | 93 | 1013.2 | |
| 20260507033042 | 48 | 0.0 | 0.0 | 0.00 | 0.08 | 0.00 | 93 | 1013.2 | |
| 20260507032031 | 48 | 0.0 | 0.0 | 0.00 | 0.09 | 0.00 | 93 | 1013.2 | |
| 20260507031042 | 48 | 0.0 | 0.0 | 0.00 | 0.09 | 0.00 | 93 | 1013.1 | |
| 20260507030040 | 48 | 0.0 | 0.0 | 0.00 | 0.09 | 0.00 | 93 | 1013.1 | |
| 20260507025021 | 48 | 0.0 | 0.0 | 0.00 | 0.09 | 0.00 | 93 | 1013.1 | |
| 20260507024017 | 48 | 0.0 | 0.0 | 0.00 | 0.10 | 0.00 | 93 | 1013.1 | |
| 20260507023059 | 48 | 0.0 | 0.0 | 0.00 | 0.11 | 0.00 | 93 | 1013.0 | |
| 20260507022045 | 48 | 0.0 | 0.0 | 0.00 | 0.11 | 0.00 | 93 | 1012.9 | |
| 20260507021016 | 48 | 0.0 | 0.0 | 0.00 | 0.12 | 0.00 | 93 | 1012.8 | |
| 20260507020044 | 48 | 0.0 | 0.0 | 0.00 | 0.12 | 0.00 | 93 | 1012.8 | |
| 20260507015025 | 48 | 0.0 | 0.0 | 0.00 | 0.13 | 0.00 | 93 | 1012.8 | |
| 20260507014016 | 48 | 0.0 | 0.0 | 0.00 | 0.13 | 0.00 | 93 | 1012.8 | |
| 20260507013024 | 48 | 0.0 | 0.0 | 0.00 | 0.13 | 0.00 | 93 | 1012.9 | |
| 20260507012016 | 48 | 0.0 | 0.0 | 0.00 | 0.15 | 0.00 | 93 | 1012.9 | |
| 20260507011547 | 48 | 0.0 | 0.0 | 0.00 | 0.15 | 0.00 | 93 | 1012.8 | |
| 20260507010529 | 48 | 0.0 | 0.0 | 0.00 | 0.17 | 0.00 | 93 | 1012.7 | |
| 20260507005524 | 48 | 0.0 | 0.0 | 0.00 | 0.17 | 0.00 | 93 | 1012.8 | |
| 20260507004521 | 48 | 0.0 | 0.0 | 0.00 | 0.17 | 0.00 | 93 | 1012.7 | |
| 20260507003518 | 48 | 0.0 | 0.0 | 0.00 | 0.18 | 0.00 | 92 | 1012.7 | |
| 20260507002523 | 48 | 0.0 | 0.0 | 0.00 | 0.19 | 0.00 | 92 | 1012.7 | |
| 20260507001522 | 48 | 0.0 | 0.0 | 0.00 | 0.20 | 0.00 | 92 | 1012.7 | |
| 20260507000527 | 0 | 0.0 | 0.0 | 0.00 | 0.21 | 0.00 | |||
| 20260507000020 | 48 | 0.0 | 0.0 | 0.00 | 0.21 | 0.00 | 92 | 1012.7 | |
| 20260506235019 | 48 | 0.0 | 0.0 | 0.00 | 0.23 | 0.00 | 92 | 1012.6 | |
| 20260506234022 | 48 | 0.0 | 0.0 | 0.00 | 0.24 | 0.00 | 92 | 1012.6 | |
| 20260506233019 | 48 | 0.0 | 0.0 | 0.00 | 0.24 | 0.00 | 92 | 1012.5 | |
| 20260506232022 | 48 | 0.0 | 0.0 | 0.00 | 0.25 | 0.00 | 92 | 1012.4 | |
| 20260506231021 | 49 | 0.0 | 0.0 | 0.00 | 0.26 | 0.00 | 92 | 1012.4 | |
| 20260506230016 | 49 | 0.0 | 0.0 | 0.00 | 0.28 | 0.00 | 93 | 1012.3 | |
| 20260506225021 | 49 | 0.0 | 0.0 | 0.00 | 0.28 | 0.00 | 93 | 1012.2 | |
| 20260506224019 | 49 | 0.0 | 0.0 | 0.00 | 0.30 | 0.00 | 92 | 1012.1 | |
| 20260506223020 | 49 | 0.0 | 0.0 | 0.00 | 0.31 | 0.00 | 92 | 1012.1 | |
| 20260506222024 | 49 | 0.0 | 0.0 | 0.00 | 0.32 | 0.00 | 92 | 1012.0 | |
| 20260506221042 | 49 | 0.0 | 0.0 | 0.00 | 0.34 | 0.00 | 92 | 1011.9 | |
| 20260506220020 | 49 | 0.0 | 0.0 | 0.00 | 0.34 | 0.00 | 92 | 1011.8 | |
| 20260506215038 | 49 | 0.0 | 0.0 | 0.00 | 0.35 | 0.35 | 92 | 1011.8 | |
| 20260506214035 | 49 | 0.0 | 0.0 | 0.00 | 0.35 | 0.35 | 92 | 1011.7 | |
| 20260506213019 | 49 | 0.0 | 0.0 | 0.00 | 0.36 | 0.35 | 92 | 1011.6 | |
| 20260506212045 | 49 | 0.0 | 0.0 | 0.00 | 0.36 | 0.35 | 92 | 1011.6 | |
| 20260506211021 | 49 | 0.0 | 0.0 | 0.00 | 0.37 | 0.35 | 91 | 1011.5 | |
| 20260506210026 | 49 | 0.0 | 0.0 | 0.00 | 0.39 | 0.35 | 91 | 1011.4 | |
| 20260506205018 | 49 | 0.0 | 0.0 | 0.00 | 0.39 | 0.35 | 90 | 1011.3 | |
| 20260506204021 | 50 | 0.0 | 0.0 | 0.00 | 0.41 | 0.35 | 90 | 1011.3 | |
| 20260506203023 | 50 | 0.0 | 0.0 | 0.00 | 0.42 | 0.35 | 89 | 1011.3 | |
| 20260506202023 | 50 | 0.0 | 0.0 | 0.00 | 0.43 | 0.35 | 88 | 1011.3 | |
| 20260506201021 | 50 | 0.0 | 0.0 | 0.00 | 0.45 | 0.35 | 87 | 1011.2 | |
| 20260506200016 | 50 | 0.0 | 0.0 | 0.00 | 0.46 | 0.35 | 86 | 1011.1 | |
| 20260506195020 | 51 | 0.0 | 0.0 | 0.00 | 0.46 | 0.35 | 85 | 1010.9 | |
| 20260506194019 | 51 | 0.0 | 0.0 | 0.00 | 0.48 | 0.35 | 85 | 1010.8 | |
| 20260506193019 | 51 | 0.0 | 0.0 | 0.00 | 0.49 | 0.35 | 84 | 1010.7 | |
| 20260506192042 | 51 | 0.0 | 0.0 | 0.00 | 0.50 | 0.35 | 82 | 1010.6 | |
| 20260506191023 | 51 | 0.0 | 0.0 | 0.00 | 0.51 | 0.35 | 81 | 1010.6 | |
| 20260506190024 | 52 | 0.0 | 0.0 | 0.00 | 0.52 | 0.35 | 81 | 1010.4 | |
| 20260506185024 | 52 | 0.0 | 0.0 | 0.00 | 0.53 | 0.35 | 79 | 1010.4 | |
| 20260506184100 | 53 | 0.0 | 0.0 | 0.00 | 0.54 | 0.35 | 78 | 1010.3 | |
| 20260506183017 | 53 | 0.0 | 0.0 | 0.00 | 0.54 | 0.35 | 77 | 1010.2 | |
| 20260506182040 | 54 | 0.0 | 0.0 | 0.00 | 0.55 | 0.35 | 77 | 1010.1 | |
| 20260506181022 | 54 | 0.0 | 0.0 | 0.00 | 0.55 | 0.35 | 76 | 1009.9 | |
| 20260506180055 | 54 | 0.0 | 0.0 | 0.00 | 0.56 | 0.35 | 78 | 1009.8 | |
| 20260506175020 | 54 | 0.0 | 0.0 | 0.00 | 0.57 | 0.35 | 78 | 1009.7 | |
| 20260506174023 | 54 | 0.0 | 0.0 | 0.00 | 0.57 | 0.35 | 79 | 1009.5 | |
| 20260506173022 | 54 | 0.0 | 0.0 | 0.00 | 0.57 | 0.35 | 80 | 1009.4 | |
| 20260506172046 | 54 | 0.0 | 0.0 | 0.00 | 0.57 | 0.35 | 79 | 1009.3 | |
| 20260506171055 | 54 | 0.0 | 0.0 | 0.00 | 0.57 | 0.35 | 79 | 1009.2 | |
| 20260506170019 | 54 | 0.0 | 0.0 | 0.00 | 0.57 | 0.35 | 78 | 1009.2 | |
| 20260506165026 | 55 | 0.0 | 0.0 | 0.00 | 0.57 | 0.35 | 78 | 1009.1 | |
| 20260506164043 | 55 | 0.0 | 0.0 | 0.00 | 0.57 | 0.35 | 78 | 1009.0 | |
| 20260506163023 | 55 | 0.0 | 0.0 | 0.00 | 0.57 | 0.35 | 76 | 1009.0 | |
| 20260506162024 | 56 | 0.0 | 0.0 | 0.00 | 0.57 | 0.35 | 75 | 1009.1 | |
| 20260506161020 | 56 | 0.0 | 0.0 | 0.00 | 0.57 | 0.35 | 76 | 1009.1 | |
| 20260506160018 | 57 | 0.0 | 0.0 | 0.00 | 0.57 | 0.35 | 74 | 1009.1 | |
| 20260506155018 | 57 | 0.0 | 0.0 | 0.00 | 0.57 | 0.35 | 74 | 1008.9 | |
| 20260506154021 | 58 | 0.0 | 0.0 | 0.00 | 0.57 | 0.35 | 75 | 1008.9 | |
| 20260506153017 | 58 | 0.0 | 0.0 | 0.00 | 0.57 | 0.35 | 76 | 1008.9 | |
| 20260506152020 | 58 | 0.0 | 0.0 | 0.00 | 0.57 | 0.35 | 77 | 1008.9 | |
| 20260506151017 | 58 | 0.0 | 0.0 | 0.00 | 0.57 | 0.35 | 81 | 1008.8 | |
| 20260506150025 | 57 | 0.0 | 0.0 | 0.00 | 0.57 | 0.35 | 84 | 1008.7 | |
| 20260506145026 | 56 | 0.0 | 0.0 | 0.00 | 0.57 | 0.35 | 84 | 1008.8 | |
| 20260506144038 | 56 | 0.0 | 0.0 | 0.00 | 0.57 | 0.35 | 86 | 1008.7 | |
| 20260506143018 | 56 | 0.0 | 0.0 | 0.00 | 0.57 | 0.35 | 88 | 1008.8 | |
| 20260506142041 | 56 | 0.0 | 0.0 | 0.00 | 0.57 | 0.35 | 87 | 1008.8 | |
| 20260506141118 | 55 | 0.0 | 0.0 | 0.00 | 0.57 | 0.35 | 85 | 1008.8 | |
| 20260506140021 | 55 | 0.0 | 0.0 | 0.00 | 0.57 | 0.35 | 88 | 1008.8 | |
| 20260506135024 | 54 | 0.0 | 0.0 | 0.00 | 0.57 | 0.35 | 90 | 1008.8 | |
| 20260506134019 | 54 | 0.0 | 0.0 | 0.00 | 0.57 | 0.35 | 90 | 1008.8 | |
| 20260506133022 | 54 | 0.0 | 0.0 | 0.00 | 0.57 | 0.35 | 90 | 1008.8 | |
| 20260506132022 | 54 | 0.0 | 0.0 | 0.00 | 0.57 | 0.35 | 90 | 1008.8 | |
| 20260506131045 | 54 | 0.0 | 0.0 | 0.00 | 0.57 | 0.35 | 92 | 1008.7 | |
| 20260506130019 | 54 | 0.0 | 0.0 | 0.00 | 0.57 | 0.35 | 93 | 1008.7 | |
| 20260506125017 | 53 | 0.0 | 0.0 | 0.00 | 0.57 | 0.35 | 93 | 1008.6 | |
| 20260506124038 | 53 | 0.0 | 0.0 | 0.00 | 0.57 | 0.35 | 92 | 1008.5 | |
| 20260506123026 | 52 | 0.0 | 0.0 | 0.01 | 0.57 | 0.35 | 92 | 1008.5 | |
| 20260506122018 | 52 | 0.0 | 0.0 | 0.01 | 0.57 | 0.35 | 92 | 1008.5 | |
| 20260506121022 | 52 | 0.0 | 0.0 | 0.01 | 0.57 | 0.35 | 92 | 1008.5 | |
| 20260506120022 | 52 | 0.0 | 0.0 | 0.01 | 0.57 | 0.35 | 92 | 1008.5 | |
| 20260506115024 | 52 | 0.0 | 0.0 | 0.01 | 0.57 | 0.35 | 90 | 1008.5 | |
| 20260506114020 | 53 | 0.0 | 0.0 | 0.01 | 0.57 | 0.35 | 88 | 1008.5 | |
| 20260506113019 | 52 | 0.0 | 0.0 | 0.00 | 0.57 | 0.34 | 88 | 1008.5 | |
| 20260506112018 | 52 | 0.0 | 0.0 | 0.00 | 0.57 | 0.34 | 88 | 1008.6 | |
| 20260506111037 | 52 | 0.0 | 0.0 | 0.00 | 0.57 | 0.34 | 88 | 1008.6 | |
| 20260506110027 | 51 | 0.0 | 0.0 | 0.00 | 0.57 | 0.34 | 88 | 1008.6 | |
| 20260506105035 | 51 | 0.0 | 0.0 | 0.00 | 0.57 | 0.34 | 88 | 1008.6 | |
| 20260506104016 | 51 | 0.0 | 0.0 | 0.00 | 0.57 | 0.34 | 88 | 1008.7 | |
| 20260506103017 | 51 | 0.0 | 0.0 | 0.00 | 0.57 | 0.34 | 88 | 1008.7 | |
| 20260506102022 | 51 | 0.0 | 0.0 | 0.00 | 0.57 | 0.34 | 88 | 1008.6 | |
| 20260506101018 | 50 | 0.0 | 0.0 | 0.00 | 0.57 | 0.34 | 88 | 1008.5 | |
| 20260506100038 | 50 | 0.0 | 0.0 | 0.00 | 0.57 | 0.34 | 88 | 1008.4 | |
| 20260506095027 | 50 | 0.0 | 0.0 | 0.01 | 0.57 | 0.34 | 88 | 1008.3 | |
| 20260506094026 | 50 | 0.0 | 0.0 | 0.01 | 0.57 | 0.34 | 88 | 1008.3 | |
| 20260506093107 | 49 | 0.0 | 0.0 | 0.01 | 0.57 | 0.34 | 88 | 1008.2 | |
| 20260506092019 | 49 | 0.0 | 0.0 | 0.01 | 0.57 | 0.34 | 88 | 1008.2 | |
| 20260506091021 | 49 | 0.0 | 0.0 | 0.01 | 0.57 | 0.34 | 88 | 1008.1 | |
| 20260506090026 | 49 | 0.0 | 0.0 | 0.01 | 0.57 | 0.34 | 88 | 1008.0 | |
| 20260506085022 | 49 | 0.0 | 0.0 | 0.00 | 0.57 | 0.33 | 88 | 1007.9 | |
| 20260506084018 | 49 | 0.0 | 0.0 | 0.00 | 0.57 | 0.33 | 88 | 1007.9 | |
| 20260506083021 | 49 | 0.0 | 0.0 | 0.00 | 0.57 | 0.33 | 88 | 1007.8 | |
| 20260506082017 | 49 | 0.0 | 0.0 | 0.01 | 0.58 | 0.33 | 88 | 1007.7 | |
| 20260506081029 | 49 | 0.0 | 0.0 | 0.01 | 0.58 | 0.33 | 88 | 1007.7 | |
| 20260506073018 | 49 | 0.0 | 0.0 | 0.02 | 0.58 | 0.33 | 88 | 1007.4 | |
| 20260506072016 | 49 | 0.0 | 0.0 | 0.02 | 0.57 | 0.32 | 88 | 1007.3 | |
| 20260506071021 | 48 | 0.0 | 0.0 | 0.02 | 0.57 | 0.32 | 88 | 1007.3 |